Location: Normandy Village
(37.8755°N, 122.2655°W)
Time: 01:37:25
(UTC+00:00)

Shenzhou-11 Module - Pass Details

Date: 10 December 2019
Orbit: 303 x 315 km, 42.8° (Epoch: 18 January)

Event Time Altitude Azimuth Distance (km) Brightness Sun altitude
Rises 02:04:14 0° 292° (WNW) 2,064 6.6 -14.3°
Reaches altitude 10° 02:06:21 10° 303° (WNW) 1,228 5.2 -14.7°
Maximum altitude 02:08:52 32° 9° (N) 580 2.7 -15.2°
Enters shadow 02:09:02 31° 18° (NNE) 584 2.7 -15.2°
